Weather History for KRRT - April, 2013

Change the Weather History Date:

Thursday, April 11, 2013

  Actual Average Record
Temperature  
Mean Temperature 26 °F -  
Max Temperature 33 °F 45 °F 76 °F (1968)
Min Temperature 19 °F 23 °F 5 °F (1962)
Degree Days  
Heating Degree Days 39    
Moisture  
Dew Point 19 °F    
Average Humidity 72    
Maximum Humidity 86    
Minimum Humidity 52    
Precipitation  
Precipitation 0.00 in - - ()
Sea Level Pressure  
Sea Level Pressure 30.03 in    
Wind  
Wind Speed 11 mph (ENE)    
Max Wind Speed 17 mph    
Max Gust Speed 23 mph    
Visibility 9 miles    
Events Snow    
Averages and records for this station are not official NWS values.
T = Trace of Precipitation, MM = Missing Value Source: NWS Daily Summary

Daily Weather History Graph

Daily Weather History Graph

Search for Another Location

Airport or City:

Trip Planner

Search our weather history database for the weather conditions in past years. The results will help you decide how hot, cold, wet, or windy it might be!

Date:

Astronomy

Apr. 11, 2013 Rise Set
Actual Time 6:37 AM CDT 8:07 PM CDT
Civil Twilight 6:04 AM CDT 8:40 PM CDT
Nautical Twilight 5:24 AM CDT 9:21 PM CDT
Astronomical Twilight 4:41 AM CDT 10:04 PM CDT
Moon 7:02 AM CDT (4/11) 9:53 PM CDT (4/11)
Length of Visible Light 14h 35m
Length of Day
13h 30m
New Moon, 2% of the Moon is Illuminated
Apr 11
New Moon
Apr 18
First Quarter
Apr 25
Full
May 2
Last Quarter
May 9
New

Hourly Weather History & Observations

Time (CDT) Temp. Windchill Dew Point Humidity Pressure Visibility Wind Dir Wind Speed Gust Speed Precip Events Conditions
12:14 AM 24.8 °F 14.6 °F 15.8 °F 69% 30.11 in 10.0 mi ENE 10.4 mph - N/A   Clear
12:34 AM 23.0 °F 12.4 °F 15.8 °F 74% 30.12 in 10.0 mi ENE 10.4 mph - N/A   Clear
12:53 AM 24.8 °F 12.9 °F 15.8 °F 69% 30.12 in 10.0 mi ENE 13.8 mph - N/A   Clear
1:14 AM 23.0 °F 12.4 °F 15.8 °F 74% 30.13 in 10.0 mi ENE 10.4 mph - N/A   Clear
1:34 AM 21.2 °F 10.9 °F 14.0 °F 74% 30.13 in 10.0 mi NE 9.2 mph - N/A   Clear
1:53 AM 21.2 °F 10.9 °F 14.0 °F 74% 30.12 in 10.0 mi NE 9.2 mph - N/A   Clear
2:14 AM 21.2 °F 11.7 °F 14.0 °F 74% 30.12 in 10.0 mi ENE 8.1 mph - N/A   Clear
2:34 AM 19.4 °F 10.4 °F 12.2 °F 74% 30.12 in 10.0 mi ENE 6.9 mph - N/A   Clear
2:53 AM 21.2 °F 10.1 °F 12.2 °F 68% 30.11 in 10.0 mi ENE 10.4 mph - N/A   Clear
3:14 AM 21.2 °F 10.1 °F 12.2 °F 68% 30.10 in 10.0 mi ENE 10.4 mph - N/A   Clear
3:33 AM 21.2 °F 11.7 °F 12.2 °F 68% 30.09 in 10.0 mi NE 8.1 mph - N/A   Clear
3:54 AM 21.2 °F 12.6 °F 14.0 °F 74% 30.08 in 10.0 mi NE 6.9 mph - N/A   Clear
4:14 AM 23.0 °F 13.1 °F 15.8 °F 74% 30.08 in 10.0 mi NE 9.2 mph - N/A   Clear
4:33 AM 21.2 °F 10.9 °F 15.8 °F 80% 30.08 in 10.0 mi ENE 9.2 mph - N/A   Clear
4:54 AM 23.0 °F 12.4 °F 15.8 °F 74% 30.08 in 10.0 mi NE 10.4 mph 16.1 mph N/A   Clear
5:13 AM 23.0 °F 11.1 °F 15.8 °F 74% 30.08 in 10.0 mi ENE 12.7 mph - N/A   Clear
5:34 AM 23.0 °F 11.7 °F 15.8 °F 74% 30.07 in 10.0 mi ENE 11.5 mph - N/A   Clear
5:54 AM 23.0 °F 11.7 °F 15.8 °F 74% 30.07 in 10.0 mi ENE 11.5 mph - N/A   Clear
6:14 AM 21.2 °F 9.5 °F 15.8 °F 80% 30.07 in 10.0 mi ENE 11.5 mph - N/A   Clear
6:34 AM 21.2 °F 10.1 °F 15.8 °F 80% 30.06 in 10.0 mi ENE 10.4 mph - N/A   Clear
6:54 AM 21.2 °F 8.9 °F 15.8 °F 80% 30.05 in 10.0 mi ENE 12.7 mph - N/A   Clear
7:14 AM 21.2 °F 9.5 °F 15.8 °F 80% 30.05 in 10.0 mi ENE 11.5 mph - N/A   Clear
7:34 AM 21.2 °F 8.3 °F 15.8 °F 80% 30.05 in 10.0 mi NE 13.8 mph - N/A   Clear
7:54 AM 21.2 °F 8.3 °F 15.8 °F 80% 30.05 in 10.0 mi NE 13.8 mph 19.6 mph N/A   Clear
8:14 AM 21.2 °F 8.9 °F 15.8 °F 80% 30.05 in 10.0 mi NE 12.7 mph - N/A   Clear
8:34 AM 23.0 °F 11.1 °F 15.8 °F 74% 30.05 in 10.0 mi ENE 12.7 mph - N/A   Clear
8:54 AM 23.0 °F 10.6 °F 15.8 °F 74% 30.04 in 10.0 mi NE 13.8 mph 20.7 mph N/A   Clear
9:14 AM 24.8 °F 12.4 °F 15.8 °F 69% 30.04 in 10.0 mi ENE 15.0 mph - N/A   Clear
9:34 AM 24.8 °F 12.9 °F 17.6 °F 74% 30.03 in 10.0 mi ENE 13.8 mph - N/A   Clear
9:54 AM 24.8 °F 12.4 °F 17.6 °F 74% 30.03 in 10.0 mi NE 15.0 mph - N/A   Clear
10:14 AM 24.8 °F 12.4 °F 17.6 °F 74% 30.03 in 10.0 mi ENE 15.0 mph - N/A   Clear
10:33 AM 26.6 °F 15.2 °F 17.6 °F 69% 30.03 in 10.0 mi ENE 13.8 mph 18.4 mph N/A   Clear
10:54 AM 26.6 °F 15.2 °F 17.6 °F 69% 30.03 in 10.0 mi ENE 13.8 mph 18.4 mph N/A   Clear
11:14 AM 26.6 °F - 17.6 °F 69% 30.03 in - Calm Calm - N/A   Clear
11:34 AM 28.4 °F 16.6 °F 17.6 °F 64% 30.03 in 10.0 mi ENE 16.1 mph - N/A   Clear
12:14 PM 28.4 °F 17.0 °F 15.8 °F 59% 30.04 in 10.0 mi ENE 15.0 mph 23.0 mph N/A   Clear
12:34 PM 28.4 °F 17.5 °F 17.6 °F 64% 30.03 in 10.0 mi ENE 13.8 mph 19.6 mph N/A   Clear
12:54 PM 28.4 °F 16.6 °F 17.6 °F 64% 30.03 in 10.0 mi ENE 16.1 mph 20.7 mph N/A   Clear
1:14 PM 30.2 °F 19.3 °F 17.6 °F 60% 30.02 in 10.0 mi ENE 15.0 mph - N/A   Clear
1:20 PM 30.2 °F 19.8 °F 17.6 °F 60% 30.02 in 10.0 mi ENE 13.8 mph - N/A   Clear
2:25 PM 30.2 °F 20.8 °F 19.4 °F 64% 30.02 in 10.0 mi ENE 11.5 mph - N/A   Clear
2:34 PM 30.2 °F 21.3 °F 19.4 °F 64% 30.02 in 10.0 mi ENE 10.4 mph - N/A   Clear
2:54 PM 30.2 °F 21.3 °F 19.4 °F 64% 30.01 in 10.0 mi East 10.4 mph - N/A   Clear
3:14 PM 32.0 °F 24.2 °F 19.4 °F 60% 30.01 in 10.0 mi East 9.2 mph - N/A   Clear
3:34 PM 32.0 °F 23.6 °F 19.4 °F 60% 30.01 in 10.0 mi East 10.4 mph - N/A   Clear
3:54 PM 32.0 °F 24.2 °F 19.4 °F 60% 30.01 in 10.0 mi East 9.2 mph - N/A   Clear
4:14 PM 33.8 °F 24.8 °F 17.6 °F 52% 30.00 in 10.0 mi East 12.7 mph - N/A   Scattered Clouds
4:34 PM 33.8 °F 27.0 °F 19.4 °F 56% 30.00 in 10.0 mi East 8.1 mph - N/A   Clear
4:54 PM 33.8 °F 27.0 °F 19.4 °F 56% 29.99 in 10.0 mi East 8.1 mph - N/A   Clear
5:14 PM 33.8 °F 23.2 °F 17.6 °F 52% 29.99 in 10.0 mi East 17.3 mph - N/A   Clear
5:33 PM 33.8 °F 23.9 °F 19.4 °F 56% 29.99 in 10.0 mi East 15.0 mph - N/A   Clear
5:54 PM 33.8 °F 24.8 °F 21.2 °F 60% 29.99 in 10.0 mi East 12.7 mph 17.3 mph N/A   Clear
6:14 PM 32.0 °F 23.6 °F 21.2 °F 64% 29.99 in 10.0 mi East 10.4 mph - N/A   Scattered Clouds
6:33 PM 32.0 °F 21.2 °F 21.2 °F 64% 29.99 in 10.0 mi East 16.1 mph - N/A   Mostly Cloudy
6:54 PM 32.0 °F 23.6 °F 21.2 °F 64% 30.00 in 10.0 mi East 10.4 mph - N/A   Mostly Cloudy
7:14 PM 30.2 °F 21.9 °F 21.2 °F 69% 29.99 in 10.0 mi ENE 9.2 mph - N/A   Overcast
7:33 PM 30.2 °F 20.8 °F 23.0 °F 75% 30.00 in 10.0 mi ENE 11.5 mph - N/A Snow Light Snow
7:54 PM 30.2 °F 21.3 °F 24.8 °F 80% 29.99 in 10.0 mi ENE 10.4 mph - N/A   Overcast
8:14 PM 30.2 °F 21.3 °F 24.8 °F 80% 29.99 in 5.0 mi ENE 10.4 mph - N/A Snow Light Snow
8:33 PM 30.2 °F 21.3 °F 26.6 °F 86% 30.00 in 4.0 mi ENE 10.4 mph - N/A Snow Light Snow
8:54 PM 30.2 °F 19.8 °F 26.6 °F 86% 30.00 in 2.5 mi ENE 13.8 mph - N/A Snow Light Snow
9:14 PM 30.2 °F 22.6 °F 26.6 °F 86% 30.00 in 2.0 mi NE 8.1 mph - N/A Snow Light Snow
9:34 PM 30.2 °F 21.9 °F 26.6 °F 86% 29.99 in 1.8 mi NE 9.2 mph - N/A Snow Light Snow
9:54 PM 30.2 °F 21.3 °F 26.6 °F 86% 29.98 in 4.0 mi NE 10.4 mph - N/A Snow Light Snow
10:14 PM 30.2 °F 18.5 °F 24.8 °F 80% 29.98 in 7.0 mi ENE 17.3 mph 20.7 mph N/A Snow Light Snow
10:33 PM 30.2 °F 19.8 °F 24.8 °F 80% 29.97 in 5.0 mi ENE 13.8 mph 18.4 mph N/A Snow Light Snow
10:54 PM 30.2 °F 20.8 °F 24.8 °F 80% 29.97 in 7.0 mi ENE 11.5 mph - N/A Snow Light Snow
11:14 PM 30.2 °F 18.9 °F 24.8 °F 80% 29.97 in 4.0 mi ENE 16.1 mph - N/A Snow Light Snow
11:34 PM 28.4 °F 18.0 °F 24.8 °F 86% 29.97 in 7.0 mi ENE 12.7 mph 18.4 mph N/A Snow Light Snow
11:54 PM 28.4 °F 18.5 °F 24.8 °F 86% 29.96 in 7.0 mi ENE 11.5 mph - N/A Snow Light Snow